Simultaneous Nadir Overpasses (SNOs) Predictions

Prediction of SNOs between GOES-14 and NPP Satellite Orbit:

Table of predicted SNOs for the next 14.0 days since TLE Epoch: 11/16/2024
Index Date Time (GOES-14) GOES-14 Lat,Lon NPP Lat,Lon Distance(km) Time Diff (sec)
1 11/16/2024 20:26:45 0.04,-108.55 0.62,-105.90 301.35 80
2 11/18/2024 08:51:11 -0.02,-108.61 0.55,-111.17 291.43 80
3 11/19/2024 08:29:46 -0.03,-108.60 -0.48,-106.63 224.70 80
4 11/20/2024 20:54:20 0.01,-108.54 -0.75,-111.92 385.91 80
5 11/21/2024 20:32:55 0.02,-108.54 0.28,-107.39 130.79 80
6 11/23/2024 08:57:20 -0.00,-108.60 0.93,-112.64 460.73 80
7 11/24/2024 08:35:54 -0.02,-108.60 -0.10,-108.11 55.97 80
8 11/26/2024 20:41:43 0.00,-108.54 -0.07,-108.87 37.35 80
9 11/27/2024 20:20:18 0.01,-108.54 0.97,-104.34 479.68 80
10 11/29/2024 08:44:43 0.01,-108.61 0.22,-109.59 111.40 80
